This is the latest recevied weather packets stored in our database for station/object RN1M-13. If no packets are shown the sender has not sent any weather packets the latest 1 day(s).
| Time | Temp. | Humidity | Pressure | Rain* | Wind** | Luminosity | Snow |
|---|---|---|---|---|---|---|---|
| 1777914888 | 13.33° C | 100% | 995.8 hPa | - | - | - | - |
| 1777913990 | 14.44° C | 100% | 996.1 hPa | - | - | - | - |
| 1777913101 | 14.44° C | 100% | 995.8 hPa | - | - | - | - |
| 1777912201 | 14.44° C | 100% | 996.4 hPa | - | - | - | - |
| 1777911301 | 15.56° C | 100% | 997.1 hPa | - | - | - | - |
| 1777910401 | 18.33° C | 100% | 997.7 hPa | - | - | - | - |
| 1777909501 | 19.44° C | 100% | 997.7 hPa | - | - | - | - |
| 1777908601 | 20° C | 100% | 997.6 hPa | - | - | - | - |
| 1777907701 | 19.44° C | 100% | 997.6 hPa | - | - | - | - |
| 1777906800 | 19.44° C | 100% | 997.9 hPa | - | - | - | - |
| 1777905900 | 18.89° C | 100% | 998 hPa | - | - | - | - |
| 1777905000 | 18.33° C | 100% | 998.1 hPa | - | - | - | - |
| 1777904100 | 17.78° C | 100% | 998.1 hPa | - | - | - | - |
| 1777903202 | 17.78° C | 100% | 998.8 hPa | - | - | - | - |
| 1777902313 | 18.33° C | 100% | 999.4 hPa | - | - | - | - |
| 1777901413 | 18.33° C | 100% | 999.6 hPa | - | - | - | - |
| 1777900513 | 17.78° C | 100% | 1000 hPa | - | - | - | - |
| 1777899613 | 18.33° C | 100% | 1000.6 hPa | - | - | - | - |
| 1777898713 | 18.89° C | 100% | 1000.3 hPa | - | - | - | - |
| 1777897813 | 20° C | 100% | 1000.3 hPa | - | - | - | - |
| 1777896914 | 20° C | 100% | 1000.6 hPa | - | - | - | - |
| 1777896013 | 20.56° C | 90% | 1000.8 hPa | - | - | - | - |
| 1777895113 | 22.22° C | 73% | 1001.1 hPa | - | - | - | - |
| 1777894213 | 21.67° C | 77% | 1001.2 hPa | - | - | - | - |
| 1777893313 | 21.67° C | 80% | 1001.5 hPa | - | - | - | - |
* Rain since midnight (hover to see other rain measurements)
** Current wind speed in m/s (hover to see current wind gust speed)